Location: Guadanolo
(41.9167°N, 12.9333°E)
Time: 10:00:41
(UTC+00:00)

Nadezhda 1 Rocket - Pass Details

Date: 23 December 2019
Orbit: 941 x 1006 km, 83.0° (Epoch: 18 January)

Event Time Altitude Azimuth Distance (km) Brightness Sun altitude
Rises 19:06:23 0° 345° (NNW) 3,618 7.2 -37.2°
Reaches altitude 10° 19:09:00 10° 338° (NNW) 2,666 6.5 -37.7°
Enters shadow 19:11:19 23° 326° (NW) 1,910 5.7 -38.1°
Exits shadow 19:21:41 - 199° (SSW) 3,178 6.8 -40.0°
Sets 19:22:50 0° 196° (SSW) 3,601 7.1 -40.2°
